| time (UTC) | temp F | wind direction | speed MPH | gust MPH | rain 1hr in | rain 24hr in | rain mn in | humidity % | barometer mb |
| 20260509203737 | 78 | 221 | 3.0 | 5.0 | 0.00 | 0.01 | 0.01 | 36 | 1007.3 |
| 20260509203235 | 78 | 219 | 4.0 | 6.0 | 0.00 | 0.01 | 0.01 | 36 | 1007.3 |
| 20260509202730 | 77 | 250 | 3.0 | 3.0 | 0.00 | 0.01 | 0.01 | 37 | 1007.5 |
| 20260509202226 | 77 | 249 | 2.0 | 5.0 | 0.00 | 0.01 | 0.01 | 38 | 1007.5 |
| 20260509201721 | 78 | 267 | 8.0 | 13.0 | 0.00 | 0.01 | 0.01 | 34 | 1007.6 |
| 20260509201218 | 78 | 265 | 4.0 | 6.0 | 0.00 | 0.01 | 0.01 | 36 | 1007.4 |
| 20260509200715 | 77 | 340 | 5.0 | 7.0 | 0.00 | 0.01 | 0.01 | 34 | 1007.6 |
| 20260509200209 | 78 | 239 | 3.0 | 3.0 | 0.00 | 0.01 | 0.01 | 37 | 1007.5 |
| 20260509195705 | 77 | 241 | 5.0 | 7.0 | 0.00 | 0.01 | 0.01 | 32 | 1007.5 |
| 20260509195200 | 77 | 235 | 3.0 | 5.0 | 0.00 | 0.01 | 0.01 | 35 | 1007.6 |
| 20260509194655 | 77 | 249 | 6.0 | 7.0 | 0.00 | 0.01 | 0.01 | 35 | 1007.6 |
| 20260509194152 | 77 | 205 | 2.0 | 3.0 | 0.00 | 0.01 | 0.01 | 36 | 1007.5 |
| 20260509193648 | 77 | 257 | 6.0 | 9.0 | 0.00 | 0.01 | 0.01 | 38 | 1007.5 |
| 20260509193144 | 77 | 242 | 3.0 | 3.0 | 0.00 | 0.01 | 0.01 | 45 | 1007.5 |
| 20260509192640 | 76 | 229 | 5.0 | 6.0 | 0.00 | 0.01 | 0.01 | 49 | 1007.5 |
| 20260509192135 | 76 | 228 | 2.0 | 3.0 | 0.00 | 0.01 | 0.01 | 49 | 1007.3 |
| 20260509191629 | 77 | 218 | 5.0 | 6.0 | 0.00 | 0.01 | 0.01 | 45 | 1007.4 |
| 20260509191127 | 77 | 227 | 2.0 | 2.0 | 0.00 | 0.01 | 0.01 | 48 | 1007.6 |
| 20260509190623 | 76 | 248 | 2.0 | 2.0 | 0.00 | 0.01 | 0.01 | 48 | 1007.6 |
| 20260509190120 | 76 | 217 | 2.0 | 2.0 | 0.00 | 0.01 | 0.01 | 50 | 1007.5 |
| 20260509185618 | 76 | 199 | 3.0 | 6.0 | 0.00 | 0.01 | 0.01 | 49 | 1007.5 |
| 20260509185114 | 76 | 196 | 2.0 | 3.0 | 0.00 | 0.01 | 0.01 | 49 | 1007.4 |
| 20260509184612 | 77 | 231 | 3.0 | 3.0 | 0.00 | 0.01 | 0.01 | 50 | 1007.5 |
| 20260509184109 | 76 | 230 | 3.0 | 5.0 | 0.00 | 0.01 | 0.01 | 51 | 1007.7 |
| 20260509183604 | 75 | 234 | 2.0 | 3.0 | 0.00 | 0.01 | 0.01 | 50 | 1007.6 |
| 20260509183100 | 75 | 224 | 3.0 | 3.0 | 0.00 | 0.01 | 0.01 | 50 | 1007.9 |
| 20260509182556 | 76 | 242 | 2.0 | 3.0 | 0.00 | 0.01 | 0.01 | 52 | 1007.8 |
| 20260509182053 | 75 | 227 | 2.0 | 2.0 | 0.00 | 0.01 | 0.01 | 54 | 1007.7 |
| 20260509181552 | 74 | 236 | 2.0 | 2.0 | 0.00 | 0.01 | 0.01 | 54 | 1007.8 |
| 20260509181049 | 75 | 245 | 4.0 | 5.0 | 0.00 | 0.01 | 0.01 | 54 | 1007.9 |
| 20260509180544 | 75 | 254 | 1.0 | 5.0 | 0.00 | 0.01 | 0.01 | 54 | 1007.6 |
| 20260509180042 | 74 | 209 | 1.0 | 2.0 | 0.00 | 0.01 | 0.01 | 56 | 1007.5 |
| 20260509175537 | 73 | 219 | 1.0 | 1.0 | 0.00 | 0.01 | 0.01 | 56 | 1007.8 |
| 20260509175035 | 74 | 235 | 6.0 | 8.0 | 0.00 | 0.01 | 0.01 | 56 | 1007.6 |
| 20260509174531 | 74 | 236 | 2.0 | 2.0 | 0.00 | 0.01 | 0.01 | 64 | 1007.5 |
| 20260509174026 | 74 | 168 | 3.0 | 3.0 | 0.00 | 0.01 | 0.01 | 58 | 1007.5 |
| 20260509173520 | 73 | 237 | 3.0 | 3.0 | 0.00 | 0.01 | 0.01 | 61 | 1007.7 |
| 20260509173011 | 73 | 224 | 1.0 | 1.0 | 0.00 | 0.01 | 0.01 | 63 | 1007.6 |
| 20260509172508 | 73 | 192 | 3.0 | 3.0 | 0.00 | 0.01 | 0.01 | 61 | 1007.5 |
| 20260509172004 | 73 | 228 | 3.0 | 3.0 | 0.00 | 0.01 | 0.01 | 64 | 1007.7 |
| 20260509171500 | 73 | 225 | 2.0 | 2.0 | 0.00 | 0.01 | 0.01 | 65 | 1007.7 |
| 20260509170957 | 72 | 173 | 0.0 | 0.0 | 0.00 | 0.01 | 0.01 | 67 | 1007.7 |
| 20260509170452 | 71 | 217 | 1.0 | 2.0 | 0.00 | 0.01 | 0.01 | 67 | 1007.8 |
| 20260509165948 | 71 | 217 | 2.0 | 3.0 | 0.00 | 0.01 | 0.01 | 68 | 1007.6 |
| 20260509165447 | 71 | 241 | 0.0 | 1.0 | 0.00 | 0.01 | 0.01 | 69 | 1007.7 |
| 20260509164944 | 70 | 83 | 3.0 | 6.0 | 0.00 | 0.01 | 0.01 | 67 | 1007.7 |
| 20260509164439 | 71 | 223 | 3.0 | 6.0 | 0.00 | 0.01 | 0.01 | 66 | 1007.6 |
| 20260509163935 | 70 | 240 | 2.0 | 2.0 | 0.00 | 0.01 | 0.01 | 72 | 1007.6 |
| 20260509163433 | 69 | 227 | 3.0 | 3.0 | 0.00 | 0.01 | 0.01 | 70 | 1007.4 |
| 20260509162932 | 69 | 248 | 4.0 | 5.0 | 0.00 | 0.01 | 0.01 | 71 | 1007.5 |
| 20260509162431 | 69 | 231 | 3.0 | 3.0 | 0.00 | 0.01 | 0.01 | 71 | 1007.4 |
| 20260509161926 | 68 | 236 | 2.0 | 3.0 | 0.00 | 0.01 | 0.01 | 73 | 1007.3 |
| 20260509161423 | 67 | 205 | 2.0 | 2.0 | 0.00 | 0.01 | 0.01 | 74 | 1007.2 |
| 20260509160918 | 67 | 231 | 3.0 | 3.0 | 0.00 | 0.01 | 0.01 | 75 | 1007.4 |
| 20260509160415 | 67 | 256 | 3.0 | 5.0 | 0.00 | 0.01 | 0.01 | 75 | 1007.5 |
| 20260509155910 | 67 | 251 | 3.0 | 3.0 | 0.00 | 0.01 | 0.01 | 78 | 1007.6 |
| 20260509155407 | 66 | 217 | 1.0 | 1.0 | 0.00 | 0.01 | 0.01 | 79 | 1007.4 |
| 20260509154903 | 65 | 253 | 2.0 | 2.0 | 0.00 | 0.01 | 0.01 | 81 | 1007.5 |
| 20260509154359 | 66 | 167 | 2.0 | 3.0 | 0.00 | 0.01 | 0.01 | 80 | 1007.5 |
| 20260509153856 | 65 | 249 | 3.0 | 3.0 | 0.00 | 0.01 | 0.01 | 78 | 1007.5 |
| 20260509153354 | 66 | 219 | 1.0 | 2.0 | 0.00 | 0.01 | 0.01 | 79 | 1007.4 |
| 20260509152850 | 64 | 238 | 4.0 | 6.0 | 0.00 | 0.01 | 0.01 | 80 | 1007.6 |
| 20260509152346 | 63 | 212 | 2.0 | 2.0 | 0.00 | 0.01 | 0.01 | 82 | 1007.6 |
| 20260509151844 | 64 | 189 | 1.0 | 2.0 | 0.00 | 0.01 | 0.01 | 82 | 1007.5 |
| 20260509151339 | 63 | 230 | 2.0 | 2.0 | 0.00 | 0.01 | 0.01 | 83 | 1007.6 |
| 20260509150838 | 63 | 257 | 5.0 | 6.0 | 0.00 | 0.01 | 0.01 | 83 | 1007.5 |
| 20260509150335 | 64 | 270 | 3.0 | 3.0 | 0.00 | 0.01 | 0.01 | 82 | 1007.3 |
| 20260509145832 | 63 | 255 | 1.0 | 2.0 | 0.00 | 0.01 | 0.01 | 84 | 1007.5 |
| 20260509145327 | 62 | 235 | 3.0 | 5.0 | 0.00 | 0.01 | 0.01 | 84 | 1007.5 |
| 20260509144824 | 61 | 247 | 3.0 | 5.0 | 0.00 | 0.01 | 0.01 | 85 | 1007.4 |
| 20260509144321 | 61 | 220 | 1.0 | 1.0 | 0.00 | 0.01 | 0.01 | 85 | 1007.6 |
| 20260509143818 | 61 | 248 | 3.0 | 5.0 | 0.00 | 0.01 | 0.01 | 86 | 1007.5 |
| 20260509143316 | 61 | 254 | 3.0 | 6.0 | 0.00 | 0.01 | 0.01 | 86 | 1007.7 |
| 20260509142811 | 61 | 235 | 2.0 | 2.0 | 0.00 | 0.01 | 0.01 | 86 | 1007.6 |
| 20260509142308 | 61 | 209 | 1.0 | 1.0 | 0.00 | 0.01 | 0.01 | 88 | 1007.5 |
| 20260509141803 | 60 | 253 | 3.0 | 6.0 | 0.00 | 0.01 | 0.01 | 88 | 1007.6 |
| 20260509141300 | 60 | 214 | 1.0 | 2.0 | 0.00 | 0.01 | 0.01 | 88 | 1007.7 |
| 20260509140757 | 60 | 236 | 3.0 | 5.0 | 0.00 | 0.01 | 0.01 | 87 | 1007.4 |
| 20260509140254 | 59 | 232 | 2.0 | 3.0 | 0.00 | 0.01 | 0.01 | 89 | 1007.4 |
| 20260509135752 | 59 | 249 | 3.0 | 5.0 | 0.00 | 0.01 | 0.01 | 89 | 1007.3 |
| 20260509135249 | 60 | 230 | 3.0 | 3.0 | 0.00 | 0.01 | 0.01 | 90 | 1007.3 |
| 20260509134746 | 59 | 230 | 2.0 | 2.0 | 0.00 | 0.01 | 0.01 | 91 | 1007.2 |
| 20260509134244 | 58 | 248 | 1.0 | 2.0 | 0.00 | 0.01 | 0.01 | 92 | 1007.1 |
| 20260509133741 | 58 | 196 | 1.0 | 1.0 | 0.00 | 0.01 | 0.01 | 93 | 1007.2 |
| 20260509133237 | 57 | 252 | 3.0 | 5.0 | 0.00 | 0.01 | 0.01 | 95 | 1007.2 |
| 20260509132736 | 56 | 222 | 3.0 | 3.0 | 0.00 | 0.01 | 0.01 | 97 | 1007.3 |
| 20260509132235 | 56 | 207 | 2.0 | 2.0 | 0.00 | 0.01 | 0.01 | 99 | 1007.3 |
| 20260509131730 | 55 | 231 | 2.0 | 2.0 | 0.00 | 0.01 | 0.01 | 99 | 1007.2 |
| 20260509131227 | 55 | 254 | 2.0 | 2.0 | 0.00 | 0.01 | 0.01 | 99 | 1007.1 |
| 20260509130723 | 55 | 231 | 1.0 | 1.0 | 0.00 | 0.01 | 0.01 | 99 | 1007.1 |
| 20260509130219 | 55 | 219 | 1.0 | 1.0 | 0.00 | 0.01 | 0.01 | 99 | 1007.1 |
| 20260509125716 | 54 | 209 | 0.0 | 1.0 | 0.00 | 0.01 | 0.01 | 99 | 1007.2 |
| 20260509125213 | 54 | 219 | 1.0 | 1.0 | 0.00 | 0.01 | 0.01 | 99 | 1007.1 |
| 20260509124709 | 54 | 211 | 1.0 | 1.0 | 0.00 | 0.01 | 0.01 | 99 | 1007.0 |
| 20260509124206 | 53 | 211 | 0.0 | 1.0 | 0.00 | 0.01 | 0.01 | 99 | 1007.3 |
| 20260509123704 | 53 | 233 | 1.0 | 1.0 | 0.00 | 0.01 | 0.01 | 99 | 1007.1 |
| 20260509123201 | 53 | 211 | 0.0 | 0.0 | 0.00 | 0.01 | 0.01 | 99 | 1007.3 |
| 20260509122656 | 53 | 214 | 0.0 | 0.0 | 0.00 | 0.01 | 0.01 | 99 | 1007.4 |
| 20260509122154 | 53 | 213 | 0.0 | 0.0 | 0.00 | 0.01 | 0.01 | 99 | 1007.1 |
| 20260509121650 | 53 | 212 | 0.0 | 0.0 | 0.00 | 0.01 | 0.01 | 99 | 1007.5 |
| 20260509121148 | 53 | 216 | 0.0 | 0.0 | 0.00 | 0.01 | 0.01 | 99 | 1007.4 |
| 20260509120646 | 53 | 214 | 0.0 | 0.0 | 0.00 | 0.01 | 0.01 | 99 | 1007.3 |
| 20260509120144 | 52 | 210 | 0.0 | 0.0 | 0.00 | 0.01 | 0.01 | 99 | 1007.3 |
| 20260509115641 | 52 | 217 | 0.0 | 0.0 | 0.00 | 0.01 | 0.01 | 99 | 1007.2 |
| 20260509115138 | 52 | 216 | 0.0 | 0.0 | 0.00 | 0.01 | 0.01 | 99 | 1007.2 |
| 20260509114637 | 51 | 217 | 0.0 | 0.0 | 0.00 | 0.01 | 0.01 | 99 | 1007.0 |
| 20260509114135 | 51 | 213 | 0.0 | 0.0 | 0.00 | 0.01 | 0.01 | 99 | 1006.8 |
| 20260509113633 | 51 | 212 | 0.0 | 0.0 | 0.00 | 0.01 | 0.01 | 99 | 1006.8 |
| 20260509113124 | 51 | 217 | 0.0 | 0.0 | 0.00 | 0.01 | 0.01 | 99 | 1006.8 |
| 20260509112621 | 51 | 211 | 0.0 | 0.0 | 0.00 | 0.01 | 0.01 | 99 | 1006.5 |
| 20260509112118 | 51 | 210 | 0.0 | 0.0 | 0.00 | 0.01 | 0.01 | 99 | 1007.0 |
| 20260509111615 | 51 | 215 | 0.0 | 0.0 | 0.00 | 0.01 | 0.01 | 99 | 1007.0 |
| 20260509111112 | 51 | 212 | 0.0 | 0.0 | 0.00 | 0.01 | 0.01 | 99 | 1006.9 |
| 20260509110609 | 51 | 213 | 0.0 | 0.0 | 0.00 | 0.01 | 0.01 | 99 | 1006.6 |
| 20260509110106 | 51 | 208 | 0.0 | 0.0 | 0.00 | 0.01 | 0.01 | 99 | 1006.7 |
| 20260509105604 | 51 | 206 | 0.0 | 0.0 | 0.00 | 0.01 | 0.01 | 99 | 1006.7 |
| 20260509105101 | 51 | 215 | 0.0 | 0.0 | 0.00 | 0.01 | 0.01 | 99 | 1006.6 |
| 20260509104558 | 51 | 211 | 0.0 | 0.0 | 0.00 | 0.01 | 0.01 | 99 | 1006.5 |
| 20260509104055 | 51 | 216 | 0.0 | 0.0 | 0.00 | 0.01 | 0.01 | 99 | 1006.5 |
| 20260509103553 | 51 | 193 | 0.0 | 0.0 | 0.00 | 0.01 | 0.01 | 99 | 1006.8 |
| 20260509103051 | 50 | 215 | 0.0 | 0.0 | 0.00 | 0.01 | 0.01 | 99 | 1006.8 |
| 20260509102548 | 50 | 213 | 0.0 | 0.0 | 0.00 | 0.01 | 0.01 | 99 | 1006.9 |
| 20260509102045 | 50 | 215 | 0.0 | 0.0 | 0.00 | 0.01 | 0.01 | 99 | 1006.7 |
| 20260509101541 | 50 | 214 | 0.0 | 0.0 | 0.00 | 0.01 | 0.01 | 99 | 1006.8 |
| 20260509101038 | 50 | 211 | 0.0 | 0.0 | 0.00 | 0.01 | 0.01 | 99 | 1006.6 |
| 20260509100535 | 50 | 209 | 0.0 | 0.0 | 0.00 | 0.01 | 0.01 | 99 | 1006.7 |
| 20260509100033 | 50 | 207 | 0.0 | 0.0 | 0.00 | 0.01 | 0.01 | 99 | 1006.6 |
| 20260509095529 | 49 | 213 | 0.0 | 0.0 | 0.00 | 0.01 | 0.01 | 99 | 1006.9 |
| 20260509095027 | 49 | 215 | 0.0 | 0.0 | 0.00 | 0.01 | 0.01 | 99 | 1006.8 |
| 20260509094522 | 49 | 215 | 0.0 | 0.0 | 0.00 | 0.01 | 0.01 | 99 | 1006.8 |
| 20260509094020 | 49 | 215 | 0.0 | 0.0 | 0.00 | 0.01 | 0.01 | 99 | 1006.9 |
| 20260509093518 | 50 | 215 | 0.0 | 0.0 | 0.05 | 0.01 | 0.01 | 99 | 1006.8 |
| 20260509093015 | 50 | 215 | 0.0 | 0.0 | 0.05 | 0.01 | 0.01 | 99 | 1007.1 |
| 20260509092513 | 50 | 215 | 0.0 | 0.0 | 0.05 | 0.01 | 0.01 | 99 | 1006.7 |
| 20260509092012 | 50 | 215 | 0.0 | 0.0 | 0.00 | 0.00 | 0.00 | 99 | 1006.8 |
| 20260509091509 | 50 | 213 | 0.0 | 0.0 | 0.00 | 0.00 | 0.00 | 99 | 1006.8 |
| 20260509091005 | 50 | 214 | 0.0 | 0.0 | 0.00 | 0.00 | 0.00 | 99 | 1006.7 |
| 20260509090502 | 50 | 216 | 0.0 | 0.0 | 0.00 | 0.00 | 0.00 | 99 | 1006.8 |
| 20260509090000 | 50 | 213 | 0.0 | 0.0 | 0.00 | 0.00 | 0.00 | 99 | 1006.7 |
| 20260509085457 | 50 | 211 | 0.0 | 0.0 | 0.00 | 0.00 | 0.00 | 99 | 1006.7 |
| 20260509084953 | 50 | 214 | 0.0 | 0.0 | 0.00 | 0.00 | 0.00 | 99 | 1006.7 |
| 20260509084450 | 50 | 214 | 0.0 | 0.0 | 0.00 | 0.00 | 0.00 | 99 | 1006.5 |
| 20260509083947 | 50 | 214 | 0.0 | 0.0 | 0.00 | 0.00 | 0.00 | 99 | 1006.6 |
| 20260509083445 | 50 | 214 | 0.0 | 0.0 | 0.00 | 0.00 | 0.00 | 99 | 1006.6 |
| 20260509082941 | 50 | 212 | 0.0 | 0.0 | 0.00 | 0.00 | 0.00 | 99 | 1006.7 |
| 20260509082438 | 50 | 212 | 0.0 | 0.0 | 0.00 | 0.00 | 0.00 | 99 | 1006.6 |
| 20260509081935 | 50 | 212 | 0.0 | 0.0 | 0.00 | 0.00 | 0.00 | 99 | 1006.6 |
| 20260509081432 | 49 | 212 | 0.0 | 0.0 | 0.00 | 0.00 | 0.00 | 99 | 1006.4 |
| 20260509080929 | 49 | 212 | 0.0 | 0.0 | 0.00 | 0.00 | 0.00 | 99 | 1006.6 |
| 20260509080427 | 50 | 212 | 0.0 | 0.0 | 0.00 | 0.00 | 0.00 | 99 | 1006.5 |
| 20260509075926 | 50 | 210 | 0.0 | 0.0 | 0.00 | 0.00 | 0.00 | 99 | 1006.6 |
| 20260509075422 | 50 | 210 | 0.0 | 0.0 | 0.00 | 0.00 | 0.00 | 99 | 1006.4 |
| 20260509074920 | 50 | 210 | 0.0 | 0.0 | 0.00 | 0.00 | 0.00 | 99 | 1006.5 |
| 20260509074417 | 50 | 210 | 0.0 | 0.0 | 0.00 | 0.00 | 0.00 | 99 | 1006.4 |
| 20260509073913 | 50 | 212 | 0.0 | 0.0 | 0.00 | 0.00 | 0.00 | 99 | 1006.6 |
| 20260509073410 | 50 | 213 | 0.0 | 0.0 | 0.00 | 0.00 | 0.00 | 99 | 1006.7 |
| 20260509072906 | 50 | 213 | 0.0 | 0.0 | 0.00 | 0.00 | 0.00 | 99 | 1006.6 |
| 20260509072403 | 50 | 213 | 0.0 | 0.0 | 0.00 | 0.00 | 0.00 | 99 | 1006.6 |
| 20260509071859 | 51 | 213 | 0.0 | 0.0 | 0.00 | 0.00 | 0.00 | 99 | 1006.8 |
| 20260509071356 | 50 | 212 | 0.0 | 0.0 | 0.00 | 0.00 | 0.00 | 99 | 1006.7 |
| 20260509070854 | 50 | 209 | 0.0 | 0.0 | 0.00 | 0.00 | 0.00 | 99 | 1006.8 |
| 20260509070350 | 49 | 209 | 0.0 | 0.0 | 0.00 | 0.00 | 0.00 | 99 | 1006.8 |
| 20260509065846 | 49 | 209 | 0.0 | 0.0 | 0.00 | 0.00 | 0.00 | 99 | 1006.8 |
| 20260509065343 | 50 | 209 | 0.0 | 0.0 | 0.00 | 0.00 | 0.00 | 99 | 1006.7 |
| 20260509064839 | 50 | 209 | 0.0 | 0.0 | 0.00 | 0.00 | 0.00 | 99 | 1006.8 |
| 20260509064337 | 50 | 209 | 0.0 | 0.0 | 0.00 | 0.00 | 0.00 | 99 | 1007.0 |
| 20260509063834 | 50 | 209 | 0.0 | 0.0 | 0.00 | 0.00 | 0.00 | 99 | 1007.1 |
| 20260509063330 | 50 | 209 | 0.0 | 0.0 | 0.00 | 0.00 | 0.00 | 99 | 1007.1 |
| 20260509062827 | 51 | 209 | 0.0 | 0.0 | 0.00 | 0.00 | 0.00 | 99 | 1007.2 |
| 20260509062324 | 51 | 209 | 0.0 | 0.0 | 0.00 | 0.00 | 0.00 | 99 | 1007.2 |
| 20260509061821 | 51 | 209 | 0.0 | 0.0 | 0.00 | 0.00 | 0.00 | 99 | 1007.1 |
| 20260509061320 | 51 | 209 | 0.0 | 0.0 | 0.00 | 0.00 | 0.00 | 99 | 1007.1 |
| 20260509060816 | 51 | 209 | 0.0 | 0.0 | 0.00 | 0.00 | 0.00 | 99 | 1007.7 |
| 20260509060314 | 51 | 210 | 0.0 | 0.0 | 0.00 | 0.00 | 0.00 | 99 | 1007.4 |
| 20260509055809 | 51 | 210 | 0.0 | 0.0 | 0.00 | 0.00 | 0.00 | 99 | 1007.6 |
| 20260509055306 | 51 | 210 | 0.0 | 0.0 | 0.00 | 0.00 | 0.00 | 99 | 1007.7 |
| 20260509054802 | 51 | 210 | 0.0 | 0.0 | 0.00 | 0.00 | 0.00 | 99 | 1007.4 |
| 20260509054258 | 51 | 210 | 0.0 | 0.0 | 0.00 | 0.00 | 0.00 | 99 | 1007.4 |
| 20260509053757 | 52 | 210 | 0.0 | 0.0 | 0.00 | 0.00 | 0.00 | 99 | 1007.7 |
| 20260509053253 | 51 | 210 | 0.0 | 0.0 | 0.00 | 0.00 | 0.00 | 99 | 1007.6 |
| 20260509052751 | 51 | 211 | 0.0 | 0.0 | 0.00 | 0.00 | 0.00 | 99 | 1007.8 |
| 20260509052249 | 52 | 211 | 0.0 | 0.0 | 0.00 | 0.00 | 0.00 | 99 | 1007.8 |
| 20260509051746 | 52 | 212 | 0.0 | 0.0 | 0.00 | 0.00 | 0.00 | 99 | 1008.0 |
| 20260509051244 | 52 | 212 | 0.0 | 0.0 | 0.00 | 0.00 | 0.00 | 99 | 1007.8 |
| 20260509050740 | 52 | 212 | 0.0 | 0.0 | 0.00 | 0.00 | 0.00 | 99 | 1008.0 |
| 20260509050237 | 51 | 212 | 0.0 | 0.0 | 0.00 | 0.00 | 0.00 | 99 | 1007.8 |
| 20260509045734 | 51 | 212 | 0.0 | 0.0 | 0.00 | 0.12 | 0.12 | 99 | 1007.7 |
| 20260509045231 | 52 | 213 | 0.0 | 0.0 | 0.00 | 0.12 | 0.12 | 99 | 1007.8 |
| 20260509044729 | 52 | 213 | 0.0 | 0.0 | 0.00 | 0.12 | 0.12 | 99 | 1008.0 |
| 20260509044226 | 52 | 213 | 0.0 | 0.0 | 0.00 | 0.12 | 0.12 | 99 | 1007.8 |
| 20260509043722 | 52 | 213 | 0.0 | 0.0 | 0.00 | 0.12 | 0.12 | 99 | 1007.9 |
| 20260509043218 | 51 | 213 | 0.0 | 0.0 | 0.00 | 0.12 | 0.12 | 99 | 1007.6 |
| 20260509042715 | 52 | 213 | 0.0 | 0.0 | 0.00 | 0.12 | 0.12 | 99 | 1008.0 |
| 20260509042211 | 52 | 213 | 0.0 | 0.0 | 0.00 | 0.12 | 0.12 | 99 | 1007.9 |
| 20260509041708 | 52 | 213 | 0.0 | 0.0 | 0.00 | 0.12 | 0.12 | 99 | 1007.9 |
| 20260509041205 | 52 | 213 | 0.0 | 0.0 | 0.00 | 0.12 | 0.12 | 99 | 1008.0 |
| 20260509040704 | 52 | 213 | 0.0 | 0.0 | 0.00 | 0.12 | 0.12 | 99 | 1007.9 |
| 20260509040200 | 53 | 213 | 0.0 | 0.0 | 0.00 | 0.12 | 0.12 | 99 | 1007.9 |
| 20260509035657 | 53 | 213 | 0.0 | 0.0 | 0.00 | 0.12 | 0.12 | 99 | 1008.1 |
| 20260509035153 | 53 | 213 | 0.0 | 0.0 | 0.00 | 0.12 | 0.12 | 99 | 1008.2 |
| 20260509034651 | 53 | 213 | 0.0 | 0.0 | 0.00 | 0.12 | 0.12 | 99 | 1007.9 |
| 20260509034148 | 53 | 213 | 0.0 | 0.0 | 0.00 | 0.12 | 0.12 | 99 | 1008.2 |
| 20260509033645 | 54 | 216 | 0.0 | 0.0 | 0.00 | 0.12 | 0.12 | 99 | 1008.1 |
| 20260509033142 | 54 | 215 | 0.0 | 0.0 | 0.00 | 0.12 | 0.12 | 99 | 1008.0 |
| 20260509032639 | 54 | 217 | 0.0 | 0.0 | 0.00 | 0.12 | 0.12 | 99 | 1008.2 |
| 20260509032136 | 54 | 218 | 0.0 | 0.0 | 0.00 | 0.12 | 0.12 | 98 | 1008.2 |
| 20260509031634 | 54 | 217 | 0.0 | 0.0 | 0.00 | 0.12 | 0.12 | 98 | 1008.2 |
| 20260509031131 | 55 | 214 | 0.0 | 0.0 | 0.00 | 0.12 | 0.12 | 98 | 1008.0 |
| 20260509030629 | 55 | 212 | 0.0 | 0.0 | 0.00 | 0.12 | 0.12 | 98 | 1008.0 |
| 20260509030126 | 55 | 218 | 1.0 | 2.0 | 0.00 | 0.12 | 0.12 | 98 | 1007.9 |
| 20260509025622 | 55 | 212 | 0.0 | 0.0 | 0.00 | 0.12 | 0.12 | 97 | 1008.0 |
| 20260509025118 | 55 | 217 | 1.0 | 1.0 | 0.00 | 0.12 | 0.12 | 97 | 1008.0 |
| 20260509024613 | 55 | 214 | 0.0 | 0.0 | 0.00 | 0.12 | 0.12 | 97 | 1008.5 |
| 20260509024110 | 55 | 205 | 0.0 | 0.0 | 0.00 | 0.12 | 0.12 | 97 | 1008.5 |
| 20260509023608 | 55 | 215 | 0.0 | 0.0 | 0.00 | 0.12 | 0.12 | 97 | 1008.4 |
| 20260509023105 | 55 | 215 | 0.0 | 0.0 | 0.00 | 0.12 | 0.12 | 96 | 1008.7 |
| 20260509022600 | 55 | 215 | 0.0 | 0.0 | 0.00 | 0.12 | 0.12 | 96 | 1008.3 |
| 20260509022059 | 55 | 215 | 0.0 | 0.0 | 0.00 | 0.12 | 0.12 | 96 | 1008.4 |
| 20260509021555 | 56 | 215 | 0.0 | 0.0 | 0.00 | 0.12 | 0.12 | 96 | 1008.1 |
| 20260509021052 | 56 | 210 | 0.0 | 0.0 | 0.00 | 0.12 | 0.12 | 95 | 1008.4 |
| 20260509020551 | 56 | 212 | 0.0 | 0.0 | 0.00 | 0.12 | 0.12 | 95 | 1008.4 |
| 20260509020047 | 56 | 212 | 0.0 | 0.0 | 0.00 | 0.12 | 0.12 | 95 | 1008.2 |
| 20260509015546 | 56 | 211 | 0.0 | 0.0 | 0.00 | 0.12 | 0.12 | 94 | 1008.5 |
| 20260509015043 | 56 | 214 | 0.0 | 0.0 | 0.00 | 0.12 | 0.12 | 94 | 1008.2 |
| 20260509014539 | 55 | 215 | 0.0 | 0.0 | 0.00 | 0.12 | 0.12 | 94 | 1008.3 |
| 20260509014036 | 55 | 215 | 0.0 | 0.0 | 0.00 | 0.12 | 0.12 | 93 | 1008.1 |
| 20260509013533 | 55 | 215 | 0.0 | 0.0 | 0.00 | 0.12 | 0.12 | 93 | 1008.2 |
| 20260509013029 | 55 | 214 | 0.0 | 0.0 | 0.00 | 0.12 | 0.12 | 92 | 1008.2 |
| 20260509012526 | 56 | 215 | 0.0 | 0.0 | 0.00 | 0.12 | 0.12 | 92 | 1008.1 |
| 20260509012022 | 56 | 215 | 0.0 | 0.0 | 0.00 | 0.12 | 0.12 | 91 | 1008.1 |
| 20260509011520 | 57 | 215 | 0.0 | 0.0 | 0.00 | 0.12 | 0.12 | 90 | 1008.3 |
| 20260509011017 | 57 | 214 | 0.0 | 0.0 | 0.00 | 0.12 | 0.12 | 89 | 1008.1 |
| 20260509010515 | 57 | 214 | 0.0 | 0.0 | 0.00 | 0.12 | 0.12 | 89 | 1008.0 |
| 20260509010011 | 57 | 215 | 0.0 | 0.0 | 0.00 | 0.12 | 0.12 | 88 | 1008.1 |
| 20260509005509 | 57 | 216 | 0.0 | 0.0 | 0.00 | 0.12 | 0.12 | 88 | 1008.2 |
| 20260509005004 | 57 | 216 | 0.0 | 0.0 | 0.00 | 0.12 | 0.12 | 86 | 1008.0 |
| 20260509004501 | 58 | 216 | 0.0 | 0.0 | 0.00 | 0.12 | 0.12 | 85 | 1008.1 |
| 20260509003958 | 58 | 216 | 0.0 | 0.0 | 0.00 | 0.12 | 0.12 | 86 | 1007.9 |
| 20260509003456 | 58 | 216 | 0.0 | 0.0 | 0.00 | 0.12 | 0.12 | 84 | 1007.8 |
| 20260509002953 | 59 | 216 | 0.0 | 0.0 | 0.00 | 0.12 | 0.12 | 84 | 1008.0 |
| 20260509002451 | 59 | 216 | 0.0 | 0.0 | 0.00 | 0.12 | 0.12 | 83 | 1008.0 |
| 20260509001948 | 59 | 216 | 0.0 | 0.0 | 0.00 | 0.12 | 0.12 | 82 | 1007.9 |
| 20260509001444 | 59 | 216 | 0.0 | 0.0 | 0.00 | 0.12 | 0.12 | 82 | 1008.0 |
| 20260509000941 | 59 | 216 | 0.0 | 0.0 | 0.00 | 0.12 | 0.12 | 81 | 1008.0 |
| 20260509000440 | 59 | 216 | 0.0 | 0.0 | 0.00 | 0.12 | 0.12 | 81 | 1008.0 |
| 20260508235935 | 60 | 216 | 0.0 | 0.0 | 0.00 | 0.12 | 0.12 | 80 | 1007.9 |
| 20260508235433 | 60 | 216 | 0.0 | 0.0 | 0.00 | 0.12 | 0.12 | 80 | 1008.0 |
| 20260508234929 | 60 | 211 | 0.0 | 1.0 | 0.00 | 0.12 | 0.12 | 79 | 1007.8 |
| 20260508234426 | 60 | 211 | 0.0 | 0.0 | 0.00 | 0.12 | 0.12 | 80 | 1008.0 |
| 20260508233924 | 60 | 211 | 0.0 | 0.0 | 0.00 | 0.12 | 0.12 | 79 | 1008.1 |
| 20260508233423 | 60 | 215 | 0.0 | 0.0 | 0.00 | 0.12 | 0.12 | 79 | 1008.2 |
| 20260508232919 | 60 | 213 | 0.0 | 0.0 | 0.00 | 0.12 | 0.12 | 79 | 1008.2 |
| 20260508232416 | 60 | 216 | 0.0 | 0.0 | 0.00 | 0.12 | 0.12 | 78 | 1008.2 |
| 20260508231914 | 60 | 221 | 0.0 | 1.0 | 0.00 | 0.12 | 0.12 | 77 | 1008.4 |
| 20260508231411 | 60 | 224 | 0.0 | 0.0 | 0.00 | 0.12 | 0.12 | 77 | 1008.3 |
| 20260508230907 | 60 | 203 | 0.0 | 1.0 | 0.00 | 0.12 | 0.12 | 77 | 1008.2 |
| 20260508230404 | 60 | 210 | 1.0 | 1.0 | 0.00 | 0.12 | 0.12 | 76 | 1008.4 |
| 20260508225901 | 60 | 206 | 0.0 | 0.0 | 0.00 | 0.12 | 0.12 | 76 | 1008.5 |
| 20260508225358 | 61 | 205 | 2.0 | 2.0 | 0.00 | 0.12 | 0.12 | 75 | 1008.5 |
| 20260508224856 | 61 | 221 | 0.0 | 1.0 | 0.00 | 0.12 | 0.12 | 76 | 1008.3 |
| 20260508224353 | 61 | 213 | 1.0 | 1.0 | 0.00 | 0.12 | 0.12 | 74 | 1008.4 |
| 20260508223850 | 61 | 205 | 1.0 | 2.0 | 0.00 | 0.12 | 0.12 | 75 | 1008.2 |
| 20260508223348 | 62 | 228 | 2.0 | 2.0 | 0.00 | 0.12 | 0.12 | 75 | 1008.5 |
| 20260508222845 | 62 | 204 | 2.0 | 3.0 | 0.00 | 0.12 | 0.12 | 74 | 1008.4 |
| 20260508222342 | 62 | 210 | 1.0 | 1.0 | 0.00 | 0.12 | 0.12 | 75 | 1008.5 |
| 20260508221839 | 62 | 226 | 2.0 | 2.0 | 0.00 | 0.12 | 0.12 | 76 | 1008.5 |
| 20260508221334 | 63 | 220 | 1.0 | 2.0 | 0.00 | 0.12 | 0.12 | 77 | 1008.1 |
| 20260508220831 | 62 | 217 | 2.0 | 2.0 | 0.00 | 0.12 | 0.12 | 77 | 1008.2 |
| 20260508220327 | 62 | 219 | 0.0 | 1.0 | 0.00 | 0.12 | 0.12 | 78 | 1008.3 |
| 20260508215824 | 62 | 251 | 2.0 | 3.0 | 0.00 | 0.12 | 0.12 | 78 | 1008.4 |
| 20260508215321 | 62 | 154 | 0.0 | 1.0 | 0.00 | 0.12 | 0.12 | 78 | 1008.4 |
| 20260508214818 | 62 | 199 | 3.0 | 5.0 | 0.00 | 0.12 | 0.12 | 79 | 1008.6 |
| 20260508214315 | 62 | 215 | 0.0 | 1.0 | 0.00 | 0.12 | 0.12 | 79 | 1008.5 |
| 20260508213811 | 62 | 210 | 1.0 | 2.0 | 0.00 | 0.12 | 0.12 | 79 | 1008.5 |
| 20260508213308 | 62 | 212 | 1.0 | 1.0 | 0.00 | 0.12 | 0.12 | 81 | 1008.5 |
| 20260508212804 | 62 | 209 | 1.0 | 1.0 | 0.00 | 0.12 | 0.12 | 82 | 1008.6 |
| 20260508212301 | 63 | 222 | 1.0 | 1.0 | 0.00 | 0.12 | 0.12 | 83 | 1008.6 |
| 20260508211756 | 62 | 219 | 0.0 | 0.0 | 0.00 | 0.12 | 0.12 | 83 | 1008.5 |
| 20260508211252 | 62 | 218 | 0.0 | 0.0 | 0.00 | 0.12 | 0.12 | 85 | 1008.8 |
| 20260508210750 | 62 | 216 | 0.0 | 0.0 | 0.00 | 0.12 | 0.12 | 85 | 1009.0 |
| 20260508210247 | 62 | 216 | 0.0 | 1.0 | 0.00 | 0.12 | 0.12 | 85 | 1008.8 |
| 20260508205744 | 62 | 218 | 0.0 | 0.0 | 0.00 | 0.12 | 0.12 | 85 | 1008.7 |
| 20260508205240 | 61 | 221 | 0.0 | 0.0 | 0.00 | 0.12 | 0.12 | 87 | 1009.3 |
| 20260508204736 | 61 | 220 | 0.0 | 0.0 | 0.00 | 0.12 | 0.12 | 85 | 1009.1 |
| 20260508204233 | 61 | 226 | 1.0 | 1.0 | 0.00 | 0.12 | 0.12 | 86 | 1009.2 |